Weather in Toledo

United States     41°39′23″N   83°35′10″W
temp.,
°C
wind,
m/s
gust,
m/s
humid.,
%
clouds,
%
prec.,
mm/h
press.,
hPa
HPBL,
m
16 may, sun
sun1623:00+16s2450100 0.0 102264
02:00+13n5863100 0.0 1023239
05:00+13ne1366100 0.0 102394
08:00+13ese4572100 0.0 1024227
11:00+17s235543 0.0 1024917
14:00+18se335196 0.0 10231212
17:00+18e545437 0.0 1022675
20:00+16ese4663100 0.0 1022160
17 may, mon
mon1723:00+14se3566100 0.0 102297
02:00+14se2469100 0.0 1022101
05:00+13sse227499 0.0 102344
08:00+14se2373100 0.0 1023117
11:00+17s3465100 0.0 1024370
14:00+19se4459100 0.0 1023756
17:00+19se4460100 0.0 1023826
20:00+17sse2369100 0.0 1023122
18 may, tue
tue1823:00+15sse2280100 0.0 102434
02:00+14se2286100 0.0 102430
05:00+14se2288100 0.0 102442
08:00+15ese3582100 0.0 1026153
11:00+17se3574100 0.0 1026316
14:00+19se4565100 0.0 1025697
17:00+19sse3470100 0.0 1024395
20:00+18sse3478100 0.0 1024131
19 may, wed
wed1923:00+16se3584100 0.0 1025110
02:00+15se3589100 0.0 102499
05:00+16sse3786100 0.0 1024165
08:00+15s3890100 0.4 1025227
11:00+16se3793100 0.9 1026229
14:00+21s5871100 0.9 1025561
17:00+23s4664100 0.0 1023933
20:00+21s4675100 0.0 1023158
20 may, thu
thu2023:00+20sse3483100 0.1 102474
02:00+18s3593100 2.1 1024120
05:00+17s2494100 0.0 102561
08:00+18ssw378718 0.0 1026183
11:00+23ssw4764100 0.0 1026515
14:00+26ssw585299 0.0 10241259
17:00+27sw575097 0.0 10231537
20:00+24sw3661100 0.0 1023228